| time (UTC) | temp F | wind direction | speed knots | gust knots | rain 1hr in | rain 24hr in | rain mn in | humidity % | barometer mb |
| 20260502163049 | 67 | 341 | 5.2 | 9.6 | 0.00 | 0.00 | 0.00 | 36 | 1015.3 |
| 20260502161529 | 66 | 319 | 2.6 | 9.6 | 0.00 | 0.00 | 0.00 | 39 | 1015.5 |
| 20260502151511 | 57 | 304 | 2.6 | 10.4 | 0.00 | 0.00 | 0.00 | 51 | 1016.8 |
| 20260502123031 | 42 | 249 | 4.3 | 8.7 | 0.00 | 0.00 | 0.00 | 66 | 1018.7 |
| 20260502121528 | 41 | 235 | 3.5 | 9.6 | 0.00 | 0.00 | 0.00 | 67 | 1018.8 |
| 20260502114524 | 40 | 252 | 6.1 | 10.4 | 0.00 | 0.00 | 0.00 | 68 | 1019.1 |
| 20260502113023 | 39 | 244 | 2.6 | 9.6 | 0.00 | 0.00 | 0.00 | 69 | 1019.2 |
| 20260502111520 | 39 | 308 | 2.6 | 7.0 | 0.00 | 0.00 | 0.00 | 70 | 1019.3 |
| 20260502110017 | 39 | 252 | 2.6 | 7.8 | 0.00 | 0.00 | 0.00 | 70 | 1019.4 |
| 20260502104515 | 39 | 263 | 2.6 | 6.1 | 0.00 | 0.00 | 0.00 | 69 | 1019.6 |
| 20260502103013 | 39 | 280 | 1.7 | 5.2 | 0.00 | 0.00 | 0.00 | 69 | 1019.8 |
| 20260502101514 | 39 | 286 | 1.7 | 6.1 | 0.00 | 0.00 | 0.00 | 69 | 1020.0 |
| 20260502091501 | 39 | 296 | 0.9 | 5.2 | 0.00 | 0.00 | 0.00 | 66 | 1020.8 |
| 20260502070052 | 40 | 296 | 0.0 | 1.7 | 0.00 | 0.00 | 0.00 | 56 | 1021.9 |
| 20260502064546 | 40 | 294 | 0.0 | 2.6 | 0.00 | 0.00 | 0.00 | 55 | 1022.2 |
| 20260502063042 | 40 | 291 | 0.0 | 1.7 | 0.00 | 0.00 | 0.00 | 56 | 1022.2 |
| 20260502061537 | 41 | 294 | 0.9 | 1.7 | 0.00 | 0.00 | 0.00 | 56 | 1022.2 |
| 20260502060036 | 41 | 302 | 0.0 | 0.9 | 0.00 | 0.00 | 0.00 | 57 | 1022.4 |
| 20260502054535 | 41 | 304 | 0.0 | 0.9 | 0.00 | 0.00 | 0.00 | 56 | 1022.4 |
| 20260502053032 | 41 | 304 | 0.0 | 0.9 | 0.00 | 0.00 | 0.00 | 55 | 1022.4 |
| 20260502051532 | 42 | 304 | 0.0 | 0.9 | 0.00 | 0.00 | 0.00 | 54 | 1022.5 |
| 20260502050035 | 41 | 304 | 0.0 | 0.9 | 0.00 | 0.00 | 0.00 | 54 | 1022.5 |
| 20260502044529 | 42 | 291 | 0.0 | 0.9 | 0.00 | 0.00 | 0.00 | 54 | 1022.6 |
| 20260502043029 | 42 | 298 | 0.0 | 0.0 | 0.00 | 0.00 | 0.00 | 53 | 1022.6 |
| 20260502041533 | 42 | 298 | 0.0 | 0.0 | 0.00 | 0.00 | 0.00 | 53 | 1022.7 |
| 20260502040027 | 43 | 297 | 0.0 | 0.0 | 0.00 | 0.00 | 0.00 | 52 | 1022.8 |
| 20260502034536 | 43 | 297 | 0.0 | 0.0 | 0.00 | 0.00 | 0.00 | 54 | 1022.8 |
| 20260502033027 | 44 | 286 | 0.0 | 1.7 | 0.00 | 0.00 | 0.00 | 56 | 1022.9 |
| 20260502031527 | 44 | 331 | 0.0 | 0.0 | 0.00 | 0.00 | 0.00 | 53 | 1022.8 |
| 20260502030026 | 44 | 332 | 0.0 | 0.0 | 0.00 | 0.00 | 0.00 | 47 | 1022.8 |
| 20260502024525 | 44 | 334 | 0.0 | 0.0 | 0.00 | 0.00 | 0.00 | 47 | 1022.8 |
| 20260502023025 | 45 | 357 | 0.0 | 0.0 | 0.00 | 0.00 | 0.00 | 44 | 1022.8 |
| 20260502021525 | 46 | 358 | 0.0 | 0.0 | 0.00 | 0.00 | 0.00 | 43 | 1022.8 |
| 20260502020024 | 48 | 3 | 0.0 | 0.0 | 0.00 | 0.00 | 0.00 | 41 | 1022.8 |
| 20260502014545 | 50 | 3 | 0.0 | 0.0 | 0.00 | 0.00 | 0.00 | 39 | 1022.8 |
| 20260502013023 | 52 | 335 | 0.0 | 0.9 | 0.00 | 0.00 | 0.00 | 37 | 1022.8 |
| 20260502011523 | 54 | 334 | 0.0 | 0.9 | 0.00 | 0.00 | 0.00 | 35 | 1022.9 |
| 20260502010022 | 54 | 342 | 0.0 | 1.7 | 0.00 | 0.00 | 0.00 | 34 | 1022.7 |
| 20260502004522 | 55 | 340 | 0.0 | 3.5 | 0.00 | 0.00 | 0.00 | 34 | 1022.7 |
| 20260502003022 | 55 | 344 | 0.0 | 4.3 | 0.00 | 0.00 | 0.00 | 33 | 1022.8 |
| 20260502001522 | 55 | 62 | 0.9 | 4.3 | 0.00 | 0.00 | 0.00 | 33 | 1022.8 |
| 20260502000039 | 56 | 329 | 0.0 | 4.3 | 0.00 | 0.00 | 0.00 | 31 | 1022.8 |
| 20260501234519 | 56 | 333 | 0.9 | 6.1 | 0.00 | 0.00 | 0.00 | 32 | 1022.9 |
| 20260501233019 | 56 | 306 | 1.7 | 4.3 | 0.00 | 0.00 | 0.00 | 32 | 1023.1 |
| 20260501231524 | 56 | 344 | 1.7 | 9.6 | 0.00 | 0.00 | 0.00 | 32 | 1023.2 |
| 20260501230020 | 55 | 298 | 1.7 | 4.3 | 0.00 | 0.00 | 0.00 | 32 | 1023.0 |
| 20260501224517 | 55 | 9 | 1.7 | 5.2 | 0.00 | 0.00 | 0.00 | 32 | 1023.1 |
| 20260501223016 | 56 | 343 | 2.6 | 12.2 | 0.00 | 0.00 | 0.00 | 33 | 1023.1 |
| 20260501221520 | 56 | 346 | 0.0 | 2.6 | 0.00 | 0.00 | 0.00 | 34 | 1023.2 |
| 20260501220014 | 55 | 321 | 0.0 | 8.7 | 0.00 | 0.00 | 0.00 | 33 | 1023.3 |
| 20260501214513 | 56 | 312 | 0.0 | 4.3 | 0.00 | 0.00 | 0.00 | 35 | 1023.4 |
| 20260501213009 | 55 | 328 | 2.6 | 7.8 | 0.00 | 0.00 | 0.00 | 37 | 1023.6 |
| 20260501211510 | 55 | 292 | 0.9 | 8.7 | 0.00 | 0.00 | 0.00 | 35 | 1023.6 |
| 20260501210006 | 54 | 317 | 1.7 | 7.8 | 0.00 | 0.00 | 0.00 | 35 | 1023.8 |
| 20260501204504 | 54 | 6 | 1.7 | 8.7 | 0.00 | 0.00 | 0.00 | 36 | 1024.0 |
| 20260501203003 | 55 | 338 | 0.0 | 8.7 | 0.00 | 0.00 | 0.00 | 39 | 1024.0 |
| 20260501201501 | 53 | 342 | 0.0 | 6.1 | 0.00 | 0.00 | 0.00 | 37 | 1024.3 |
| 20260501200100 | 53 | 357 | 1.7 | 6.1 | 0.00 | 0.00 | 0.00 | 39 | 1024.4 |
| 20260501194559 | 53 | 334 | 4.3 | 11.3 | 0.00 | 0.00 | 0.00 | 38 | 1024.6 |
| 20260501193101 | 53 | 331 | 0.9 | 7.8 | 0.00 | 0.00 | 0.00 | 42 | 1024.5 |
| 20260501191556 | 52 | 342 | 2.6 | 7.0 | 0.00 | 0.00 | 0.00 | 42 | 1024.7 |
| 20260501190054 | 51 | 324 | 1.7 | 6.1 | 0.00 | 0.00 | 0.00 | 42 | 1024.8 |
| 20260501184556 | 51 | 273 | 2.6 | 7.8 | 0.00 | 0.00 | 0.00 | 42 | 1024.9 |
| 20260501183055 | 51 | 323 | 1.7 | 8.7 | 0.00 | 0.00 | 0.00 | 43 | 1025.0 |
| 20260501181550 | 50 | 342 | 1.7 | 7.0 | 0.00 | 0.00 | 0.00 | 44 | 1025.1 |